Date,TemperatureHighF,TemperatureAvgF,TemperatureLowF,DewpointHighF,DewpointAvgF,DewpointLowF,HumidityHigh,HumidityAvg,HumidityLow,PressureMaxIn,PressureMinIn,WindSpeedMaxMPH,WindSpeedAvgMPH,GustSpeedMaxMPH,PrecipitationSumIn
2013-4-1,38,32,26,20,15,12,64,52,36,30.23,29.94,11,2,0,0.00
2013-4-2,42,32,23,19,16,12,78,53,31,30.36,30.23,5,1,0,0.00
2013-4-3,45,36,23,22,17,14,82,50,29,30.48,30.29,4,1,0,0.00
2013-4-4,58,43,31,36,27,21,67,55,37,30.29,29.96,6,1,0,0.00
2013-4-5,51,41,30,29,25,22,81,57,35,30.26,30.07,4,1,0,0.00
2013-4-6,60,45,35,49,33,19,89,62,46,30.13,29.55,6,2,0,0.02
2013-4-7,53,44,37,45,36,32,85,74,57,29.94,29.60,10,2,10,0.00
2013-4-8,61,46,38,51,42,32,96,84,68,30.00,29.61,9,1,9,0.33
2013-4-9,44,40,37,41,38,35,97,95,92,30.03,29.86,11,1,11,1.08
2013-4-10,38,35,32,36,34,31,96,95,93,30.09,29.91,10,2,10,0.54
2013-4-11,39,37,36,38,36,34,97,96,94,29.94,29.60,13,2,13,0.16
2013-4-12,41,36,35,37,34,29,98,90,77,29.82,29.54,5,1,0,0.02
2013-4-13,39,36,33,30,28,26,86,74,62,30.01,29.81,6,2,0,0.00
2013-4-14,53,40,32,47,35,27,94,81,68,30.02,29.55,8,2,0,0.10
2013-4-15,59,47,42,49,42,35,98,84,45,29.97,29.60,9,1,0,0.38
2013-4-16,55,44,34,36,33,30,88,68,42,30.31,29.97,5,1,0,0.00
2013-4-17,44,41,39,42,37,33,97,87,69,30.33,29.85,7,1,0,0.88
2013-4-18,59,46,38,58,44,33,99,94,81,29.89,29.33,21,2,21,0.31
2013-4-19,40,36,32,33,29,22,84,75,59,29.94,29.38,19,4,19,0.00
2013-4-20,48,37,28,24,19,13,78,51,28,30.41,29.94,11,1,11,0.00
2013-4-21,53,43,33,36,29,24,74,60,40,30.51,30.26,16,2,16,0.00
2013-4-22,68,55,44,42,38,34,71,55,35,30.28,29.99,11,1,11,0.00
2013-4-23,56,45,39,47,36,29,87,73,56,30.01,29.87,12,1,12,0.00
2013-4-24,55,42,34,31,27,22,75,57,29,30.06,29.98,7,1,4,0.00
2013-4-25,54,45,38,36,32,27,89,63,40,30.29,29.98,10,2,0,0.03
2013-4-26,69,55,40,46,40,27,71,57,42,30.28,30.13,11,2,10,0.00
2013-4-27,65,56,46,49,46,43,90,69,50,30.22,30.00,11,1,11,0.00
2013-4-28,74,59,43,50,45,40,91,63,35,30.00,29.77,10,0,10,0.00
2013-4-29,71,62,53,58,53,48,86,72,54,29.84,29.68,9,1,9,0.01
2013-4-30,86,72,60,61,54,46,91,58,26,29.85,29.65,17,2,17,0.02